Location: ČR
(50.0000°N, 15.0000°E)
Time: 20:06:39
(UTC+00:00)

Vanguard 3 - Pass Details

Date: 27 October 2021
Orbit: 508 x 3260 km, 33.4° (Epoch: 04 December)

Event Time Altitude Azimuth Distance (km) Brightness Sun altitude
Rises 16:27:58 0° 233° (SW) 3,233 11.6 -7.4°
Reaches altitude 10° 16:30:35 10° 216° (SW) 2,580 10.5 -7.8°
Maximum altitude 16:35:13 22° 168° (SSE) 2,354 9.5 -8.6°
Drops below altitude 10° 16:41:50 10° 124° (SE) 3,879 10.2 -9.6°
Enters shadow 16:45:23 - 115° (ESE) 4,953 10.6 -10.2°
Sets 16:46:57 0° 112° (ESE) 5,434 - -10.4°
